STARLINK-33825, 63505

Orbit data source: Space-Track

STARLINK-33825, 63505 is a payload satellite owned by SpaceX/Seattle (US) in LEO that was launched on Mon, 07 Apr 2025 UTC via an FALCON 9 launch vehicle from the Air Force Western Test Range (AFWTR). Payload-class satellites include a variety of spacecraft equipped with specific instruments for various scientific and technological missions. These include communications satellites like Starlink; space stations such as the ISS; scientific satellites like the Hubble; Earth observation satellites from companies like Planet Labs, Umbra, and HawkEye 360; GPS; miniature CubeSats for education and research; and military/defense satellites.

Loading next visibility...
Identifier
63505, 2025-071N
Orbit
LEO
Country
Flag of USUS
Related business
Manufacturer
SpaceX/Seattle
Mission
Operational Commercial Communications
Bus & Motor
STARLINK V2MO, Unknown motor
Mass
575 kg wet, ~530 kg dry
Launch date (UTC)
2025-04-07 (1 year ago)
Launch vehicle
FALCON 9
Launch site
Air Force Western Test Range (AFWTR)
Object type
Payload
Rocket body
Debris
Shape & HBR
Box + 1 Pan, 17.7 m
Radar Cross Section
41.120 m², Large (>1 m²)

Expand to show TLE details & history
Last TLE update: 19 hours ago

TLE from 19 hours ago
0 STARLINK-33825
1 63505U 25071N   26267.08304060  .00019521  00000-0  58676-3 0  9991
2 63505  53.1602 297.0724 0001599  90.2038 269.9148 15.34433265 83168
Epoch: 2026-09-24T01:59Z
TLE epoch observation values (Epoch: 2026-09-24T01:59:34.707Z)
Latitude
-0.00003°
Longitude
-95.74714°
Altitude
463.508 km
Speed
7.636 km/s
True Right ascension
19h 48m 17s
True Declination
0° 00' 00"
Sunlit
Object was in full shadow at epoch
Visualization orbit readout
Latitude
Unknown
Longitude
Unknown
Altitude
Unknown
Speed
Unknown
Apparent Right ascension
Unknown
Apparent Declination
Unknown
Sunlit
N/A
Visualization observer readout
Local Sidereal Time
13:57:47
Azimuth
Unknown
Elevation
Unknown
Doppler factor
Unknown
Orbital elements
Apogee altitude
463.955 km
Perigee altitude
461.767 km
Semi-major axis
6,840.998 km
Eccentricity
0.00016
Inclination
53.1602°
RAAN
297.0724°
Arg. of periapsis
90.2038°
True anomaly
269.89648°
Mean anomaly
269.9148°
Eccentric anomaly
269.90564°
Mean motion
3.83587 °/min
Orbital period
93.85 mins
BSTAR
0.00058676
Loading maneuver chart data...
Computing Atmospheric mass density...
Loading historical data...
Loading historical data...
Loading historical data...
Loading historical data...
Loading historical data...
Loading historical data...
Loading historical data...

Documentation

Showing up to 5 results
|